Location: Brno
(49.2000°N, 16.6330°E)
Time: 09:45:24
(UTC+02:00)

Cosmos 1603 - Visible Passes

Search period start: 05 September 2015 00:00
Search period end: 15 September 2015 00:00
Orbit: 832 x 859 km, 71.0° (Epoch: 04 September)

Date Brightness Start Highest point End Pass type
(mag) Time Alt. Az. Time Alt. Az. Time Alt. Az.
05 Sep 5.5 03:08:35 17° SE 03:11:06 23° ESE 03:15:30 10° NE visible
05 Sep 3.8 04:50:30 18° SW 04:54:48 66° WNW 05:00:26 10° NNE visible
06 Sep 5.5 02:55:28 19° SE 02:57:14 22° ESE 03:01:34 10° NE visible
06 Sep 3.7 04:37:23 23° SW 04:40:55 68° WNW 04:46:34 10° NNE visible
07 Sep 5.4 02:42:17 20° ESE 02:43:23 22° ESE 02:47:39 10° NE visible
07 Sep 3.7 04:24:11 30° SW 04:27:02 70° WNW 04:32:41 10° NNE visible
08 Sep 5.5 02:29:04 21° ESE 02:29:31 21° ESE 02:33:43 10° NE visible
08 Sep 3.7 04:10:58 38° SW 04:13:09 71° WNW 04:18:48 10° NNE visible
09 Sep 5.5 02:15:48 21° E 02:15:48 21° E 02:19:47 10° NE visible
09 Sep 3.6 03:57:42 48° SW 03:59:16 73° WNW 04:04:56 10° NNE visible
09 Sep 5.4 05:40:32 10° W 05:44:29 19° NW 05:48:19 10° N visible
10 Sep 5.6 02:02:29 20° E 02:02:29 20° E 02:05:51 10° NE visible
10 Sep 3.6 03:44:24 60° WSW 03:45:23 75° WNW 03:51:03 10° NNE visible
10 Sep 5.4 05:26:34 10° W 05:30:34 19° NW 05:34:27 10° N visible
11 Sep 5.7 01:49:09 18° E 01:49:09 18° E 01:51:54 10° NE visible
11 Sep 3.5 03:31:03 72° WSW 03:31:30 77° WNW 03:37:10 10° NNE visible
11 Sep 5.4 05:12:57 11° W 05:16:39 19° NW 05:20:36 10° N visible
12 Sep 5.9 01:35:47 17° ENE 01:35:47 17° ENE 01:37:58 10° ENE visible
12 Sep 3.6 03:17:41 79° NW 03:17:41 79° NW 03:23:17 10° NNE visible
12 Sep 5.4 04:59:35 13° WNW 05:02:45 20° NW 05:06:44 10° N visible
13 Sep 6.0 01:22:23 15° ENE 01:22:23 15° ENE 01:24:01 10° ENE visible
13 Sep 3.8 03:04:17 72° N 03:04:17 72° N 03:09:24 10° NNE visible
13 Sep 5.4 04:46:11 15° WNW 04:48:50 20° NW 04:52:52 10° N visible
14 Sep 6.1 01:08:57 13° ENE 01:08:57 13° ENE 01:10:04 10° ENE visible
14 Sep 4.0 02:50:51 62° NNE 02:50:51 62° NNE 02:55:31 10° NNE visible
14 Sep 5.3 04:32:45 17° WNW 04:34:55 20° NW 04:39:00 10° N visible
